Weather History for Omaha Offutt, NE

Change the Weather History Date:

Wednesday, May 9, 2012

  Actual Average Record
Temperature  
Mean Temperature 56 °F -  
Max Temperature 68 °F 69 °F 95 °F (2011)
Min Temperature 44 °F 49 °F 42 °F (1997)
Degree Days  
Heating Degree Days 10    
Growing Degree Days 6 (Base 50)    
Moisture  
Dew Point 42 °F    
Average Humidity 64    
Maximum Humidity 91    
Minimum Humidity 35    
Precipitation  
Precipitation 0.00 in - - ()
Sea Level Pressure  
Sea Level Pressure 30.04 in    
Wind  
Wind Speed 5 mph (NW)    
Max Wind Speed 10 mph    
Max Gust Speed -    
Visibility 10 miles    
Events      
Averages and records for this station are not official NWS values.
T = Trace of Precipitation, MM = Missing Value Source: NWS Daily Summary

Daily Weather History Graph

Daily Weather History Graph

Search for Another Location

Airport:

Trip Planner

Search our weather history database for the weather conditions in past years. The results will help you decide how hot, cold, wet, or windy it might be!

Date:

Astronomy

May. 09, 2012 Rise Set
Actual Time 6:11 AM CDT 8:29 PM CDT
Civil Twilight 5:40 AM CDT 9:00 PM CDT
Nautical Twilight 5:02 AM CDT 9:38 PM CDT
Astronomical Twilight 4:20 AM CDT 10:20 PM CDT
Moon No Moon Rise 9:27 AM CDT (5/9)
Length of Visible Light 15h 19m
Length of Day
14h 18m
Waning Gibbous, 82% of the Moon is Illuminated
May 9
Waning Gibbous
May 12
Last Quarter
May 20
New
May 28
First Quarter
Jun 4
Full

Hourly Weather History & Observations

Time (CDT) Temp. Windchill Dew Point Humidity Pressure Visibility Wind Dir Wind Speed Gust Speed Precip Events Conditions
12:55 AM 49.1 °F - 39.9 °F 71% 30.08 in 10.0 mi WNW 8.1 mph - N/A   Clear
1:55 AM 46.9 °F - 40.1 °F 77% 30.07 in 10.0 mi WNW 6.9 mph - N/A   Clear
2:55 AM 47.8 °F - 40.1 °F 75% 30.06 in 10.0 mi WNW 10.4 mph - N/A   Clear
3:55 AM 45.7 °F - 39.6 °F 79% 30.07 in 10.0 mi Calm Calm - N/A   Clear
4:55 AM 44.4 °F - 39.4 °F 82% 30.07 in 10.0 mi Calm Calm - N/A   Clear
5:55 AM 44.4 °F 42.9 °F 39.2 °F 82% 30.08 in 10.0 mi NW 3.5 mph - N/A   Clear
6:55 AM 45.1 °F 42.8 °F 40.3 °F 83% 30.10 in 10.0 mi NW 4.6 mph - N/A   Clear
7:55 AM 48.6 °F - 42.6 °F 80% 30.11 in 10.0 mi WNW 3.5 mph - N/A   Clear
8:55 AM 54.3 °F - 44.4 °F 69% 30.12 in 10.0 mi North 4.6 mph - N/A   Clear
9:55 AM 57.7 °F - 45.3 °F 63% 30.11 in 10.0 mi Variable 3.5 mph - N/A   Clear
10:55 AM 59.9 °F - 43.0 °F 54% 30.11 in 10.0 mi NW 10.4 mph - N/A   Scattered Clouds
11:55 AM 61.0 °F - 42.4 °F 51% 30.10 in 10.0 mi NNW 9.2 mph - N/A   Scattered Clouds
12:55 PM 62.4 °F - 41.9 °F 47% 30.08 in 10.0 mi Variable 5.8 mph - N/A   Scattered Clouds
1:55 PM 64.4 °F - 42.4 °F 45% 30.05 in 10.0 mi WNW 5.8 mph - N/A   Clear
2:55 PM 65.8 °F - 42.4 °F 43% 30.03 in 10.0 mi West 5.8 mph - N/A   Clear
3:55 PM 66.9 °F - 41.5 °F 40% 30.01 in 10.0 mi North 3.5 mph - N/A   Clear
4:55 PM 67.6 °F - 42.1 °F 39% 29.98 in 10.0 mi Calm Calm - N/A   Clear
5:55 PM 67.6 °F - 39.2 °F 35% 29.97 in 10.0 mi Calm Calm - N/A   Clear
6:55 PM 67.5 °F - 39.2 °F 36% 29.95 in 10.0 mi Calm Calm - N/A   Clear
7:55 PM 64.6 °F - 41.9 °F 44% 29.94 in 10.0 mi Calm Calm - N/A   Clear
8:55 PM 54.3 °F - 46.0 °F 74% 29.94 in 10.0 mi East 3.5 mph - N/A   Clear
9:55 PM 50.4 °F - 46.0 °F 85% 29.96 in 10.0 mi Calm Calm - N/A   Clear
10:55 PM 48.9 °F - 46.4 °F 91% 29.95 in 10.0 mi Calm Calm - N/A   Clear
11:55 PM 47.8 °F - 44.4 °F 88% 29.94 in 10.0 mi Calm Calm - N/A   Clear